When you browse on this site, cookies collect data to enhance your experience and personalize the content and advertising you see.
Visit our Privacy Policy to learn more. By continuing to use the site, you agree to this use of cookies and data.
  • în România
  • Lista ţărilor
  • Pe 7 zile
  • Temperatura apei
  • Meteo pe hartă
  • Widget-uri
  • user-avatar
    Intrare

    Meteo pe oră la Bilbao

    Astăzi, 23 Februarie, Duminică

    Timp Temperatura Precipitaţii Vânt Presiune Umiditate
    00:00 +10°C° 0 mm 1 m/s 766 mmHg 89%
    01:00 +10°C° 0 mm 1 m/s 766 mmHg 85%
    02:00 +10°C° 0 mm 1 m/s 765 mmHg 81%
    03:00 +10°C° 0 mm 1 m/s 765 mmHg 77%
    04:00 +10°C° 0 mm 1 m/s 765 mmHg 74%
    05:00 +10°C° 0 mm 1 m/s 765 mmHg 71%
    06:00 +10°C° 0 mm 1 m/s 765 mmHg 68%
    07:00 +11°C° 0 mm 1 m/s 765 mmHg 64%
    08:00 +13°C° 0 mm 1 m/s 765 mmHg 59%
    09:00 +14°C° 0 mm 1 m/s 765 mmHg 54%
    10:00 +18°C° 0 mm 1 m/s 765 mmHg 47%
    11:00 +20°C° 0 mm 1 m/s 765 mmHg 41%
    12:00 +22°C° 0 mm 1 m/s 765 mmHg 34%
    13:00 +22°C° 0 mm 1 m/s 765 mmHg 38%
    14:00 +21°C° 0 mm 1 m/s 764 mmHg 41%
    15:00 +20°C° 0 mm 2 m/s 764 mmHg 45%
    16:00 +18°C° 0 mm 1 m/s 764 mmHg 56%
    17:00 +15°C° 0 mm 1 m/s 764 mmHg 67%
    18:00 +11°C° 0 mm 0 m/s 764 mmHg 78%
    19:00 +11°C° 0 mm 0 m/s 764 mmHg 77%
    20:00 +11°C° 0 mm 1 m/s 764 mmHg 76%
    21:00 +11°C° 0 mm 1 m/s 764 mmHg 75%
    22:00 +11°C° 0 mm 1 m/s 764 mmHg 71%
    23:00 +11°C° 0 mm 1 m/s 764 mmHg 67%

    Mâine, 24 Februarie, Luni

    Timp Temperatura Precipitaţii Vânt Presiune Umiditate
    00:00 +11°C° 0 mm 1 m/s 764 mmHg 64%
    01:00 +10°C° 0 mm 1 m/s 763 mmHg 61%
    02:00 +10°C° 0 mm 1 m/s 763 mmHg 58%
    03:00 +10°C° 0 mm 1 m/s 762 mmHg 56%
    04:00 +10°C° 0 mm 1 m/s 762 mmHg 56%
    05:00 +9°C° 0 mm 2 m/s 761 mmHg 57%
    06:00 +9°C° 0 mm 2 m/s 761 mmHg 57%
    07:00 +12°C° 0 mm 1 m/s 761 mmHg 56%
    08:00 +13°C° 0 mm 1 m/s 761 mmHg 54%
    09:00 +15°C° 0 mm 1 m/s 760 mmHg 53%
    10:00 +18°C° 0 mm 1 m/s 760 mmHg 47%
    11:00 +21°C° 0 mm 1 m/s 760 mmHg 41%
    12:00 +23°C° 0 mm 1 m/s 760 mmHg 34%
    13:00 +23°C° 0 mm 2 m/s 759 mmHg 37%
    14:00 +21°C° 0 mm 2 m/s 758 mmHg 39%
    15:00 +21°C° 0 mm 3 m/s 758 mmHg 41%
    16:00 +18°C° 0 mm 3 m/s 758 mmHg 51%
    17:00 +16°C° 0 mm 2 m/s 758 mmHg 62%
    18:00 +14°C° 0 mm 2 m/s 758 mmHg 72%
    19:00 +13°C° 0 mm 2 m/s 758 mmHg 74%
    20:00 +12°C° 0 mm 2 m/s 758 mmHg 76%
    21:00 +11°C° 0 mm 1 m/s 758 mmHg 78%
    22:00 +11°C° 0 mm 1 m/s 758 mmHg 75%
    23:00 +11°C° 0 mm 1 m/s 757 mmHg 71%

    Poimâine, 25 Februarie, Marţi

    Timp Temperatura Precipitaţii Vânt Presiune Umiditate
    00:00 +11°C° 0 mm 1 m/s 757 mmHg 67%
    01:00 +11°C° 0 mm 1 m/s 756 mmHg 66%
    02:00 +11°C° 0 mm 1 m/s 756 mmHg 64%
    03:00 +11°C° 0 mm 1 m/s 755 mmHg 62%
    04:00 +11°C° 0 mm 1 m/s 755 mmHg 63%
    05:00 +10°C° 0 mm 2 m/s 755 mmHg 65%
    06:00 +10°C° 0 mm 2 m/s 755 mmHg 67%
    07:00 +10°C° 0.2 mm 2 m/s 755 mmHg 70%
    08:00 +10°C° 0.2 mm 2 m/s 756 mmHg 74%
    09:00 +10°C° 0.2 mm 2 m/s 756 mmHg 77%
    10:00 +12°C° 0.3 mm 2 m/s 756 mmHg 79%
    11:00 +11°C° 0.3 mm 3 m/s 756 mmHg 80%
    12:00 +11°C° 0.3 mm 3 m/s 756 mmHg 81%
    13:00 +11°C° 0.2 mm 3 m/s 756 mmHg 82%
    14:00 +12°C° 0.2 mm 4 m/s 756 mmHg 82%
    15:00 +12°C° 0.2 mm 4 m/s 755 mmHg 83%
    16:00 +11°C° 0.1 mm 4 m/s 755 mmHg 86%
    17:00 +10°C° 0.1 mm 4 m/s 756 mmHg 88%
    18:00 +9°C° 0.1 mm 3 m/s 756 mmHg 91%
    19:00 +8°C° 0.1 mm 4 m/s 756 mmHg 91%
    20:00 +8°C° 0.1 mm 4 m/s 756 mmHg 91%
    21:00 +8°C° 0.1 mm 5 m/s 757 mmHg 91%
    22:00 +8°C° 0.1 mm 5 m/s 757 mmHg 90%
    23:00 +8°C° 0.1 mm 5 m/s 757 mmHg 89%

    26 Februarie, Miercuri

    Timp Temperatura Precipitaţii Vânt Presiune Umiditate
    00:00 +8°C° 0.1 mm 5 m/s 757 mmHg 88%
    01:00 +8°C° 0.1 mm 5 m/s 757 mmHg 87%
    02:00 +7°C° 0.1 mm 5 m/s 756 mmHg 85%
    03:00 +7°C° 0.1 mm 6 m/s 756 mmHg 84%
    04:00 +7°C° 0.2 mm 6 m/s 756 mmHg 85%
    05:00 +7°C° 0.2 mm 6 m/s 756 mmHg 86%
    06:00 +7°C° 0.2 mm 5 m/s 757 mmHg 87%
    07:00 +7°C° 0.3 mm 5 m/s 757 mmHg 87%
    08:00 +7°C° 0.3 mm 6 m/s 758 mmHg 87%
    09:00 +7°C° 0.3 mm 6 m/s 758 mmHg 87%
    10:00 +7°C° 0.2 mm 5 m/s 758 mmHg 85%
    11:00 +7°C° 0.2 mm 5 m/s 759 mmHg 82%
    12:00 +8°C° 0.2 mm 5 m/s 759 mmHg 80%
    13:00 +8°C° 0.2 mm 5 m/s 759 mmHg 80%
    14:00 +8°C° 0.2 mm 4 m/s 758 mmHg 80%
    15:00 +8°C° 0.2 mm 4 m/s 758 mmHg 80%
    16:00 +8°C° 0.1 mm 3 m/s 758 mmHg 83%
    17:00 +8°C° 0.1 mm 3 m/s 758 mmHg 85%
    18:00 +7°C° 0.1 mm 2 m/s 758 mmHg 87%
    19:00 +7°C° 0 mm 2 m/s 758 mmHg 88%
    20:00 +7°C° 0 mm 2 m/s 759 mmHg 88%
    21:00 +8°C° 0 mm 1 m/s 759 mmHg 89%
    22:00 +6°C° 0 mm 2 m/s 758 mmHg 89%
    23:00 +6°C° 0 mm 2 m/s 758 mmHg 90%

    27 Februarie, Joi

    Timp Temperatura Precipitaţii Vânt Presiune Umiditate
    00:00 +6°C° 0 mm 2 m/s 758 mmHg 91%
    01:00 +5°C° 0 mm 2 m/s 757 mmHg 90%
    02:00 +4°C° 0 mm 3 m/s 757 mmHg 90%
    03:00 +4°C° 0 mm 3 m/s 756 mmHg 89%
    04:00 +4°C° 0 mm 3 m/s 756 mmHg 88%
    05:00 +4°C° 0 mm 3 m/s 756 mmHg 87%
    06:00 +4°C° 0 mm 4 m/s 756 mmHg 86%
    07:00 +5°C° 0 mm 3 m/s 756 mmHg 83%
    08:00 +7°C° 0 mm 3 m/s 756 mmHg 79%
    09:00 +8°C° 0 mm 3 m/s 756 mmHg 76%
    10:00 +10°C° 0 mm 3 m/s 755 mmHg 69%
    11:00 +12°C° 0 mm 3 m/s 755 mmHg 61%
    12:00 +16°C° 0 mm 3 m/s 755 mmHg 54%
    13:00 +17°C° 0 mm 3 m/s 754 mmHg 49%
    14:00 +18°C° 0 mm 3 m/s 754 mmHg 44%
    15:00 +19°C° 0 mm 2 m/s 754 mmHg 39%
    16:00 +17°C° 0 mm 2 m/s 754 mmHg 47%
    17:00 +15°C° 0 mm 1 m/s 754 mmHg 55%
    18:00 +13°C° 0 mm 1 m/s 754 mmHg 62%
    19:00 +12°C° 0 mm 1 m/s 754 mmHg 64%
    20:00 +12°C° 0 mm 1 m/s 754 mmHg 65%
    21:00 +11°C° 0 mm 1 m/s 755 mmHg 66%
    22:00 +11°C° 0 mm 1 m/s 755 mmHg 66%
    23:00 +10°C° 0 mm 2 m/s 754 mmHg 66%

    28 Februarie, Vineri

    Timp Temperatura Precipitaţii Vânt Presiune Umiditate
    00:00 +9°C° 0 mm 2 m/s 754 mmHg 66%
    01:00 +9°C° 0 mm 2 m/s 754 mmHg 67%
    02:00 +9°C° 0 mm 2 m/s 753 mmHg 68%
    03:00 +9°C° 0 mm 2 m/s 753 mmHg 68%
    04:00 +9°C° 0 mm 2 m/s 752 mmHg 70%
    05:00 +9°C° 0 mm 2 m/s 752 mmHg 72%
    06:00 +8°C° 0 mm 2 m/s 752 mmHg 73%
    07:00 +10°C° 0 mm 3 m/s 751 mmHg 69%
    08:00 +11°C° 0 mm 3 m/s 751 mmHg 65%
    09:00 +12°C° 0 mm 3 m/s 751 mmHg 60%
    10:00 +14°C° 0 mm 3 m/s 750 mmHg 53%
    11:00 +17°C° 0 mm 3 m/s 750 mmHg 45%
    12:00 +19°C° 0 mm 4 m/s 749 mmHg 37%
    13:00 +19°C° 0 mm 4 m/s 748 mmHg 36%
    14:00 +19°C° 0 mm 4 m/s 747 mmHg 35%
    15:00 +19°C° 0 mm 4 m/s 746 mmHg 34%
    16:00 +18°C° 0 mm 4 m/s 746 mmHg 39%
    17:00 +17°C° 0 mm 4 m/s 746 mmHg 43%
    18:00 +15°C° 0 mm 4 m/s 745 mmHg 48%
    19:00 +14°C° 0 mm 4 m/s 745 mmHg 53%
    20:00 +14°C° 0 mm 5 m/s 746 mmHg 58%
    21:00 +13°C° 0 mm 5 m/s 746 mmHg 63%
    22:00 +13°C° 0 mm 5 m/s 745 mmHg 66%
    23:00 +13°C° 0 mm 5 m/s 745 mmHg 69%
    Arată mai mult